Location: Bemmer
(51.5498°N, 5.6249°E)
Time: 14:07:11
(UTC+00:00)

Cosmos 1503 Rocket - Pass Details

Date: 03 March 2021
Orbit: 753 x 790 km, 74.0° (Epoch: 11 April)

Event Time Altitude Azimuth Distance (km) Brightness Sun altitude
Rises 18:27:38 0° 334° (NNW) 3,236 7.7 -11.1°
Reaches altitude 10° 18:30:02 10° 334° (NNW) 2,302 6.9 -11.4°
Maximum altitude 18:35:15 87° 247° (WSW) 764 4.0 -12.2°
Drops below altitude 10° 18:40:25 10° 159° (SSE) 2,274 6.2 -13.0°
Sets 18:42:46 0° 159° (SSE) 3,194 6.9 -13.4°
